Regional Weather Roundup
Issued by NWS

Home | Current Version | Previous Version | Text Only | Print | Product List | Glossary On
Versions: 1 2 3 4 5 6 7 8 9 10 11 12 13 14 15 16 17 18 19 20 21 22 23 24 25 26 27 28 29 30 31 32 33 34 35 36 37 38 39 40 41 42 43 44 45 46 47 48 49 50
000
ASUS43 KMPX 300410
RWRMN
WEATHER ROUNDUP FOR MINNESOTA
NATIONAL WEATHER SERVICE TWIN CITIES/CHANHASSEN MN
1100 PM CDT FRI MAY 29 2015


NOTE: "FAIR" INDICATES FEW OR NO CLOUDS BELOW 12,000 FEET WITH NO
SIGNIFICANT WEATHER AND/OR OBSTRUCTIONS TO VISIBILITY. N/A MEANS
CURRENT SKY AND/OR WEATHER CONDITIONS ARE NOT AVAILABLE.

MNZ060>063-068>070-300500-
   Twin Cities Metro

CITY           SKY/WX    TMP DP  RH WIND       PRES   REMARKS
TWIN CITIES    LGT RAIN  54  52  93 N15       30.04R
ST PAUL        LGT RAIN  55  52  89 N13       30.05R
CRYSTAL        CLOUDY    55  50  83 N10       30.05R
BLAINE         LGT RAIN  55  54  94 N12       30.06R
LAKEVILLE      DRIZZLE   54  52  94 N14G20    30.03R
EDEN PRAIRIE   CLOUDY    54  49  83 N13G22    30.04R
SOUTH ST PAUL  LGT RAIN  55  52  92 N14G20    30.03S
LAKE ELMO      LGT RAIN  54  50  87 N12G17    30.04S
$$
MNZ001>005-007-008-013>017-022>024-027-028-300500-
   Northwest Minnesota

CITY           SKY/WX    TMP DP  RH WIND       PRES   REMARKS
BEMIDJI        PTCLDY    45  35  69 N7        30.19R
HALLOCK        CLEAR     39  28  65 N14       30.33R
ROSEAU         CLEAR     41  32  70 NW13      30.27R
WARROAD        CLEAR     39  34  81 NW14G20   30.26R
THIEF RVR FALL CLEAR     43  27  52 N15       30.27R
CROOKSTON      CLEAR     43  32  65 N16G28    30.28R
FOSSTON        PTCLDY    41  30  65 N15       30.24R
DETROIT LAKES  PTCLDY    45  36  70 N15       30.21R
MOORHEAD       PTCLDY    45  37  76 N13       30.25R
PARK RAPIDS    PTCLDY    50  36  58 N14       30.17R
MAHNOMEN       FAIR      44  34  68 N18G24    30.23R
$$
MNZ006-009>011-018-025>026-300500-
   North Central Minnesota

CITY           SKY/WX    TMP DP  RH WIND       PRES   REMARKS
BAUDETTE       CLOUDY    47  35  63 N13       30.20R
FLAG ISLAND    PTCLDY    45  30  57 N20G28    30.23R
INTL FALLS     PTCLDY    41  34  76 NW6       30.16R
WASKISH        CLEAR     46  37  71 NW8       30.20R
BIG FORK       MOCLDY    45  36  70 N6        30.17R
LONGVILLE      CLOUDY    48  39  71 N6        30.15R
GRAND RAPIDS   CLOUDY    46  36  66 N10G17    30.14S
CRANE LAKE     CLOUDY    46  39  76 N9G18     30.15R
ORR            CLOUDY    46  36  66 NW5       30.11R
COOK           CLOUDY    48  39  71 NW3       30.14R
WALKER         MOCLDY    47  36  67 N9G17     30.17R
$$
MNZ012-019>021-037-300500-
   Northeast Minnesota

CITY           SKY/WX    TMP DP  RH WIND       PRES   REMARKS
DULUTH         CLOUDY    50  41  71 N10       30.08R
HIBBING        CLOUDY    48  38  68 N12       30.12R
EVELETH        CLOUDY    50  41  71 N8        30.12R
DULUTH HARBOR  CLOUDY    54  45  71 N9        30.10R
TWO HARBORS    CLOUDY    54  45  71 N5        30.06R
SILVER BAY     CLOUDY    52  43  71 NW5       30.05R
GRAND MARAIS     N/A     54  43  66 N13G29    30.00R
G MARAIS ARPRT CLOUDY    46  39  76 NW8       30.04R
$$
MNZ029>031-032-039>041-046>048-054>057-064-300500-
   West Central Minnesota

CITY           SKY/WX    TMP DP  RH WIND       PRES   REMARKS
FERGUS FALLS   MOCLDY    48  37  66 N10G16    30.21R
WHEATON        MOCLDY    45  37  76 NW16      30.22R
MORRIS         MOCLDY    50  43  76 N14       30.16R
ALEXANDRIA     FAIR      50  43  77 N12       30.16R
ELBOW LAKE     FAIR      49  42  77 N18       30.17R
WADENA         PTCLDY    48  41  76 N9        30.16R
GLENWOOD       MOCLDY    48  45  87 N5        30.15R
APPLETON       MOCLDY    52  45  76 N14       30.15S
BENSON         PTCLDY    48  43  81 N8        30.15R
ORTONVILLE     MOCLDY    48  39  71 N18       30.18R
MADISON        MOCLDY    50  43  76 N15G21    30.16S
WILLMAR        FAIR      52  46  82 N10       30.14R
$$
MNZ033>034-036-042>043-049>051-058-059-300500-
   Central Minnesota

CITY           SKY/WX    TMP DP  RH WIND       PRES   REMARKS
ST CLOUD       CLOUDY    51  44  77 N10       30.10R
SAUK CENTRE    FAIR      50  42  73 N12G17    30.13R
PAYNESVILLE    PTCLDY    47  43  87 NW5       30.13R
AITKIN         CLOUDY    52  41  66 N14       30.11R
PINE RIVER     MOCLDY    50  39  66 N12       30.18R
BRAINERD       MOCLDY    50  40  68 N13       30.13R
STAPLES        MOCLDY    48  37  66 N12       30.15R
LONG PRAIRIE   FAIR      50  39  66 N9G17     30.14R
LITTLE FALLS   MOCLDY    50  41  71 NW6       30.12R
LITCHFIELD     PTCLDY    52  48  87 N8        30.11S
BUFFALO        CLOUDY    53  46  76 N10       30.09R
MAPLE LAKE     CLOUDY    53  48  83 NW8       30.10R
$$
MNZ037-044-045-052-053-300500-
   East Central Minnesota

CITY           SKY/WX    TMP DP  RH WIND       PRES   REMARKS
PRINCETON      CLOUDY    54  46  76 NW7       30.09R
MORA           CLOUDY    50  45  81 N5        30.10R
CAMBRIDGE      CLOUDY    55  45  67 N7        30.06R
RUSH CITY      CLOUDY    53  48  84 N8        30.07S
MOOSE LAKE     CLOUDY    50  41  71 N7G21     30.09R
HINCKLEY       FAIR      52  45  76 N16G24    30.08R
CLOQUET        CLOUDY    48  39  71 NW9G17    30.10R
MCGREGOR       CLOUDY    50  41  71 N10       30.12R
$$
MNZ071>073-080-081-089-090-097-098-300500-
   Southwest Minnesota

CITY           SKY/WX    TMP DP  RH WIND       PRES   REMARKS
MONTEVIDEO     PTCLDY    50  46  87 N10       30.15S
GRANITE FALLS  PTCLDY    50  44  81 NW12      30.14S
CANBY          MOCLDY    49  44  82 N12       30.17S
MARSHALL       MOCLDY    48  41  76 N15       30.13S
REDWOOD FALLS  CLOUDY    53  47  79 N10       30.10R
OLIVIA         PTCLDY    50  45  81 N9        30.11R
PIPESTONE      MOCLDY    48  43  81 N10G18    30.13R
WINDOM         CLOUDY    52  48  87 NW18G24   30.09S
WORTHINGTON    CLOUDY    48  43  81 N18G24    30.10R
JACKSON        CLOUDY    52  50  93 N15G23    30.08R
TRACY          CLOUDY    49  46  89 N13G18    30.13R
SLAYTON        CLOUDY    47  45  92 N20G26    30.12S
$$
MNZ065>067-074>077-082>085-091>093-300500-
   South Central Minnesota

CITY           SKY/WX    TMP DP  RH WIND       PRES   REMARKS
MANKATO        CLOUDY    54  48  82 N20G25    30.05R
NEW ULM        CLOUDY    52  48  87 N13G21    30.08S
ST JAMES       CLOUDY    54  52  94 NW18G24   30.08S
FAIRMONT       CLOUDY    54  48  82 N23G30    30.04S
GLENCOE        CLOUDY    54  50  86 N10G18    30.07S
FARIBAULT      DRIZZLE   54  54 100 N14       30.03R
OWATONNA       RAIN      55  54  94 N15G21    30.02R
WASECA         DRIZZLE   54  52  94 N18G26    30.03R
ALBERT LEA     LGT RAIN  57  57 100 N16G23    29.99R
$$
MNZ078>079-086>088-094>096-300500-
   Southeast Minnesota

CITY           SKY/WX    TMP DP  RH WIND       PRES   REMARKS
ROCHESTER      LGT RAIN  63  61  93 N13       29.96R
RED WING       LGT RAIN  57  55  94 N9G20     29.98R
STANTON        LGT RAIN  55  52  88 N16       30.00R
DODGE CENTER   RAIN      57  55  94 N16G22    29.99R
WINONA         HVY RAIN  64  64 100 NE3       29.92S
AUSTIN         LGT RAIN  59  57  94 N15G21    29.96R
PRESTON        LGT RAIN  62  61  96 CALM      29.93S
$$
ABBREVIATIONS USED IN REMARKS
   TC - TEMPERATURES IN CELSIUS
  WCI - WIND CHILL INDEX
   HX - HEAT INDEX
  VSB - VISIBILITY
$$


USA.gov is the U.S. government's official web portal to all federal, state and local government web resources and services.